Location: Columbia
(38.9520°N, 92.3340°W)
Time: 01:42:14
(UTC-05:00)

Iridium 22 - Visible Passes

Search period start: 30 March 2017 00:00
Search period end: 09 April 2017 00:00
Orbit: 776 x 779 km, 86.4° (Epoch: 28 March)

Date Brightness Start Highest point End Pass type
(mag) Time Alt. Az. Time Alt. Az. Time Alt. Az.
30 Mar 8.6 20:48:57 10° NW 20:52:17 17° W 20:55:36 10° WSW visible
31 Mar 9.3 06:25:51 10° E 06:27:27 11° ENE 06:29:02 10° ENE visible
31 Mar 7.6 20:14:28 10° NNW 20:19:02 32° W 20:23:36 10° SW visible
02 Apr 9.0 20:50:26 10° WNW 20:52:10 12° WNW 20:53:54 10° W visible
03 Apr 8.4 20:15:03 10° NNW 20:18:59 22° W 20:22:55 10° SW visible
06 Apr 8.8 20:15:59 10° NW 20:18:54 15° WNW 20:21:49 10° WSW visible
07 Apr 8.9 05:51:42 10° ESE 05:54:03 13° ENE 05:56:25 10° NE visible
